Location: Mascot Post Office (historical)
(40.2645°N, 99.5462°W)
Time: 17:26:10
(UTC+00:00)

USA 267 - Pass Details

Date: 14 July 2020
Orbit: 1102 x 1106 km, 123.0° (Epoch: 02 August)

Event Time Altitude Azimuth Distance (km) Brightness Sun altitude
Exits shadow 05:54:08 21° 96° (E) 2,252 4.7 -27.0°
Maximum altitude 05:58:18 48° 33° (NNE) 1,409 4.0 -27.2°
Drops below altitude 10° 06:04:31 10° 321° (NW) 2,965 6.3 -27.5°
Sets 06:07:05 0° 316° (NW) 3,926 7.0 -27.5°
